EHI
0 0 0 0 0 0 0 0 0 0 0 0 0 0 0 0 0 0 0 0 0 0 0 1 2 1 0 0 0 0 1 1 1 1 0 0 1 1 1 0 0 0 0 0
0 0 0 0 0 0 0 0 0 0 0 0 0 0 0 0 0 0 0 0 0 0 0 1 2 2 0 0 0 0 0 0 1 1 0 0 0 0 0 0 0 0 0 0
0 0 0 0 0 0 0 0 0 0 0 0 0 0 0 0 0 0 0 0 0 0 0 1 2 2 1 0 0 0 0 0 0 0 0 0 0 0 0 0 0 0 0 0
0 0 0 0 0 0 0 0 0 0 0 0 0 0 0 0 0 0 0 0 0 0 1 2 1 1 1 0 0 0 0 0 0 0 0 0 0 0 0 0 0 0 0 0
0 0 0 0 0 0 0 0 0 0 0 0 0 0 0 0 0 0 0 0 0 0 1 1 1 0 1 0 0 0 0 0 0 0 0 0 0 0 0 0 0 0 0 0
0 0 0 0 0 0 0 0 0 0 0 0 0 0 0 0 0 0 0 0 0 0 0 0 0 1 1 1 0 0 0 0 0 0 0 0 0 0 0 0 0 0 0 0
0 0 0 0 0 0 0 0 0 0 0 0 0 0 0 0 0 0 0 0 0 0 0 0 0 1 2 2 1 0 0 0 0 0 0 0 0 0 0 0 0 0 0 0
0 0 0 0 0 0 0 0 0 0 0 0 0 0 0 0 0 0 0 0 0 0 0 0 0 1 2 2 1 0 0 0 0 0 0 0 0 0 0 0 0 0 0 0
0 0 0 0 0 0 0 0 0 0 0 0 0 0 0 0 0 0 0 0 0 0 0 0 0 1 1 1 0 0 0 0 0 0 0 0 0 0 0 0 0 0 0 0
0 0 0 0 0 0 0 0 0 0 0 0 0 0 0 0 0 0 0 0 0 0 0 0 0 0 0 0 0 0 0 0 0 0 0 0 0 0 0 0 0 0 0 0
0 0 0 0 0 0 0 0 0 0 0 0 0 0 0 0 0 0 0 0 0 0 0 0 0 0 0 0 0 0 0 0 0 0 0 0 0 0 0 0 0 0 0 0
0 0 0 0 0 0 0 0 0 0 0 0 0 0 0 0 0 0 0 0 0 0 0 0 0 0 0 0 0 0 0 0 0 0 0 0 0 0 0 0 0 0 0 0
0 0 0 0 0 0 0 0 0 0 0 0 0 0 0 0 0 0 0 0 0 0 0 0 0 0 0 0 0 0 0 0 0 0 0 0 0 0 0 0 0 0 0 0
0 0 0 0 0 0 0 0 0 0 0 0 0 0 0 0 0 0 0 0 0 0 0 0 0 0 0 0 0 0 0 0 0 0 0 0 0 0 0 0 0 0 0 0
0 0 0 0 0 0 0 0 0 0 0 0 0 0 0 0 0 0 0 0 0 0 0 0 0 0 0 0 0 0 0 0 0 0 0 0 0 0 0 0 0 0 0 0
0 0 0 0 0 0 0 0 0 0 0 0 0 0 0 0 0 0 0 0 0 0 0 0 0 0 0 0 0 0 0 0 0 0 0 0 0 0 0 0 0 0 0 0
0 0 0 0 0 0 0 0 0 0 0 0 0 0 0 0 0 0 0 0 0 0 0 0 0 0 0 0 0 0 0 0 0 0 0 0 0 0 0 0 0 0 0 0
0 0 0 0 0 0 0 0 0 0 0 0 0 0 0 0 0 0 0 0 0 0 0 0 0 0 0 0 0 0 0 0 0 0 0 0 0 0 0 0 0 0 0 0
0 0 0 0 0 0 0 0 0 0 0 0 0 0 0 0 0 0 0 0 0 0 0 0 0 0 0 0 0 0 0 0 0 0 0 0 0 0 0 0 0 0 0 0
0 0 0 0 0 0 0 0 0 0 0 0 0 0 0 0 0 0 0 0 0 0 0 0 0 0 0 0 0 0 0 0 0 0 0 0 0 0 0 0 0 0 0 0
0 0 0 0 0 0 0 0 0 0 0 0 0 0 0 0 0 0 0 0 0 0 0 0 0 0 0 0 0 0 0 0 0 0 0 0 0 0 0 0 0 0 0 0
0 0 0 0 0 0 0 0 0 0 0 0 0 0 0 0 0 0 0 0 0 0 0 0 0 0 0 0 0 0 0 0 0 0 0 0 0 0 0 0 0 0 0 0
0 0 0 0 0 0 0 0 0 0 0 0 0 0 0 0 0 0 0 0 0 0 0 0 0 0 0 0 0 0 0 0 0 0 0 0 0 0 0 0 0 0 0 0
0 0 0 0 0 0 0 0 0 0 0 0 0 0 0 0 0 0 0 0 0 0 0 0 0 0 0 0 0 0 0 0 0 0 0 0 0 0 0 0 0 0 0 0
0 0 0 0 0 0 0 0 0 0 0 0 0 0 0 0 0 0 0 0 0 0 0 0 0 0 0 0 0 0 0 0 0 0 0 0 0 0 0 0 0 0 0 0
0 0 0 0 0 0 0 0 0 0 0 0 0 0 0 0 0 0 0 0 0 0 0 0 0 0 0 0 0 0 0 0 0 0 0 0 0 0 0 0 0 0 0 0
Wind_Speed
9 8 11 12 14 11 8 9 10 8 4 5 9 12 10 8 8 7 6 6 6 6 5 4 4 4 3 3 3 3 2 2 2 2 3 2 2 3 3 2 3 3 3 3
8 14 14 10 10 12 12 13 12 9 3 5 9 13 11 9 9 7 6 6 6 5 5 4 4 4 4 4 3 3 2 2 3 3 2 2 2 2 2 3 3 3 3 3
16 8 9 12 12 12 13 13 11 9 6 6 8 11 10 8 7 6 6 6 5 6 5 5 5 4 4 4 4 3 3 3 2 2 2 2 2 1 1 2 2 2 3 3
14 13 8 10 12 13 12 8 8 8 6 5 5 8 7 7 7 7 7 6 5 4 5 5 5 5 4 4 4 4 4 3 3 3 4 4 3 2 2 2 2 3 3 3
9 9 11 12 11 10 6 2 4 6 7 8 7 8 9 5 7 8 7 6 6 5 5 6 6 5 4 4 4 4 4 4 3 3 4 4 3 1 2 3 4 3 3 2
11 7 8 9 6 6 3 3 4 4 4 9 10 10 8 5 7 6 6 6 6 6 5 5 5 5 4 4 4 4 4 4 4 3 4 4 5 3 4 3 3 3 2 2
10 11 7 3 5 6 6 4 2 4 5 9 7 8 7 3 4 5 6 6 6 6 6 6 6 6 5 6 5 4 5 4 4 3 3 3 4 4 4 4 3 3 2 2
8 8 11 9 9 7 10 9 7 6 5 4 4 8 4 1 3 3 4 5 6 6 6 5 5 5 6 6 6 5 5 4 4 3 2 3 3 2 2 3 3 3 2 2
7 6 6 9 8 7 8 10 7 4 4 5 6 4 2 2 3 4 4 4 4 5 5 5 4 4 5 5 6 6 5 5 5 4 3 3 3 3 3 3 3 2 2 2
5 5 3 4 4 7 5 4 4 5 5 6 7 6 5 5 5 5 4 4 3 4 5 5 5 5 4 5 4 5 5 5 5 4 3 3 3 4 3 3 3 2 2 2
5 4 3 4 9 10 8 6 5 5 5 4 4 3 0 5 5 5 4 3 3 4 4 4 4 4 4 4 4 5 5 5 5 4 3 4 3 4 4 3 3 3 2 3
4 3 5 7 5 5 8 8 7 5 6 5 4 4 2 3 4 4 4 3 3 3 3 4 4 5 4 4 4 4 5 5 5 5 4 4 4 3 4 3 3 3 2 2
2 3 3 3 3 3 4 7 8 6 3 5 5 5 2 3 4 3 3 2 2 3 3 3 3 4 5 5 5 4 4 5 5 5 5 4 4 4 4 3 3 3 2 2
4 4 6 7 4 2 5 7 8 7 6 7 8 6 3 0 0 0 1 2 2 3 3 3 3 4 4 5 5 5 4 4 5 5 5 5 4 4 4 3 3 3 2 2
3 5 7 9 8 5 6 8 9 10 9 8 8 8 5 4 3 3 2 2 2 2 3 4 3 3 4 4 4 5 5 5 4 5 5 4 4 4 4 3 3 3 2 2
3 5 6 8 8 8 9 9 10 11 10 10 10 10 4 1 1 1 2 2 3 3 3 3 3 3 4 4 4 4 5 5 5 5 4 4 4 4 4 3 3 3 2 2
4 4 5 7 7 7 9 8 8 8 7 7 10 9 3 2 3 3 3 4 4 3 3 3 3 3 3 4 4 4 4 4 5 4 4 4 4 4 4 3 3 3 2 2
7 5 4 4 4 9 5 2 4 6 7 6 5 4 3 2 2 2 2 3 2 2 3 3 3 3 3 3 4 4 5 5 5 4 4 4 4 4 3 3 3 2 2 2
8 6 4 3 6 7 4 3 2 4 5 4 4 4 4 2 1 2 1 1 1 1 2 2 2 3 3 4 4 5 5 4 4 3 3 3 4 4 3 3 3 2 2 2
7 6 4 4 4 5 3 5 5 3 5 4 3 3 3 2 1 3 2 2 3 3 3 3 3 3 4 3 5 5 4 4 3 3 3 2 2 3 3 3 3 2 2 2
3 4 7 7 5 3 3 6 3 2 3 5 4 3 2 1 1 1 2 3 3 3 3 3 4 3 3 4 5 5 4 3 2 3 3 2 2 2 2 2 2 3 2 2
2 2 4 4 5 4 5 4 2 3 4 5 4 3 3 3 3 3 4 4 4 4 4 3 3 4 3 3 4 4 3 2 3 3 3 2 2 1 2 2 2 2 2 2
2 2 2 1 2 3 4 3 4 4 4 5 4 4 3 3 3 3 4 4 4 4 3 3 4 4 3 3 3 3 2 2 3 3 3 2 2 1 2 3 2 2 2 2
4 5 2 2 3 5 7 6 7 6 5 5 4 4 3 3 3 3 3 4 4 3 3 3 3 4 3 3 3 3 2 2 3 3 2 2 2 1 1 1 2 2 2 2
5 5 4 3 4 5 6 8 7 7 6 5 5 4 3 2 2 2 2 3 3 3 3 3 3 3 3 3 3 2 2 2 3 2 2 1 1 2 1 1 1 1 2 3
5 4 4 3 5 4 6 8 8 7 6 6 5 5 4 2 2 2 2 2 2 3 3 3 3 3 2 2 2 1 1 2 3 2 1 1 1 1 1 1 1 1 2 2
Wind_Direction
194 211 217 215 216 237 265 271 272 273 259 237 248 258 258 249 237 232 226 218 212 210 191 169 158 152 151 147 144 152 155 165 155 167 160 163 171 166 156 153 160 162 159 153
208 227 229 230 230 235 250 262 270 281 258 266 271 269 261 244 234 224 220 217 210 198 181 167 157 152 158 153 152 149 144 163 167 178 174 174 166 168 161 157 159 153 152 157
221 222 212 225 233 237 240 242 254 268 287 263 278 277 246 235 223 214 212 207 202 188 178 168 159 157 150 150 155 161 158 160 161 166 152 145 125 126 149 151 154 147 135 132
236 232 223 221 227 227 245 239 248 261 274 265 224 280 257 218 213 209 207 201 194 182 168 159 158 155 158 158 157 157 150 142 149 151 145 145 147 157 172 154 139 123 116 118
233 213 220 229 228 223 233 256 252 252 257 270 244 255 268 206 217 206 196 192 184 174 159 158 158 156 150 148 153 155 143 135 129 141 142 145 135 131 121 121 124 125 116 107
244 234 219 228 229 220 208 246 266 248 247 255 229 225 264 215 208 186 179 178 171 163 156 156 155 151 145 147 147 146 139 139 135 140 149 145 140 137 134 130 134 125 115 106
239 234 225 204 204 199 191 175 209 210 216 242 211 215 246 224 178 169 168 166 160 156 158 161 159 158 154 150 143 139 141 140 145 145 145 145 139 142 150 147 141 130 123 112
225 232 204 200 207 194 199 195 195 210 226 244 205 226 240 181 143 134 134 142 147 154 161 162 161 159 154 149 146 143 141 133 135 134 136 128 119 132 137 131 131 139 140 136
229 239 183 192 200 196 196 213 233 271 288 268 238 216 217 175 136 136 135 134 139 151 158 160 156 155 151 150 154 151 148 144 141 139 139 128 120 117 118 122 117 124 129 132
269 261 211 172 179 219 227 201 187 205 224 245 249 225 209 181 187 171 158 154 146 141 151 154 155 160 158 153 151 152 154 156 145 140 148 140 131 123 122 119 117 110 108 115
263 257 232 182 196 196 198 210 207 206 228 229 258 257 164 167 164 161 159 142 140 136 148 152 154 155 152 146 145 150 153 145 142 143 143 132 123 120 117 114 113 109 104 111
249 256 243 226 212 210 201 203 199 201 227 225 251 264 20 83 113 124 125 106 108 118 135 146 152 150 146 151 154 155 153 148 147 143 143 135 128 122 117 114 110 107 106 109
273 242 253 230 209 209 219 219 220 231 247 232 230 249 44 67 80 99 115 111 109 112 123 136 147 156 155 158 158 152 152 151 145 142 143 139 136 130 127 125 121 115 110 115
288 241 227 237 253 223 237 240 232 223 226 241 239 253 271 284 96 238 139 137 134 140 147 151 152 160 161 161 158 152 151 149 145 145 150 150 151 145 141 134 128 125 123 123
287 257 259 271 282 271 259 245 235 234 233 234 251 259 259 222 207 199 176 164 159 163 170 168 164 167 160 158 159 157 151 147 146 149 155 156 150 141 136 136 134 128 127 122
305 277 285 276 274 273 269 253 241 241 242 249 261 266 271 202 174 167 178 189 200 190 178 173 167 166 163 161 159 150 146 151 147 151 154 149 143 139 138 140 134 127 129 124
258 260 270 266 273 286 257 239 234 234 236 239 251 260 281 234 214 212 210 207 212 196 178 174 172 171 165 161 154 149 145 140 142 146 146 146 144 143 146 146 139 145 150 137
247 251 249 264 272 247 248 233 236 241 249 255 261 277 279 239 219 220 209 191 184 174 171 173 166 155 144 136 132 136 136 138 139 143 146 148 147 148 149 148 154 164 156 153
229 236 244 234 244 261 276 312 296 261 271 298 284 294 300 324 4 331 355 89 135 160 149 143 137 130 125 126 131 129 132 136 139 144 149 153 153 152 153 157 165 167 154 161
230 233 239 235 240 253 286 309 304 268 266 323 320 312 322 1 278 283 356 54 75 79 91 98 105 105 109 116 123 124 128 130 139 144 143 136 140 152 162 168 170 166 163 174
246 230 229 237 247 270 325 325 341 209 272 328 331 334 339 331 287 334 42 53 73 69 78 86 96 98 102 110 117 121 124 134 140 133 127 128 133 149 164 169 168 158 160 162
296 265 244 238 242 261 343 352 356 306 331 343 353 8 19 23 25 52 62 61 62 63 73 81 90 89 88 100 113 117 127 133 129 128 131 134 136 152 149 147 155 156 158 161
319 310 304 271 263 330 344 357 344 347 358 359 4 10 27 31 31 44 50 56 55 59 61 67 86 84 77 86 104 114 119 118 123 123 131 136 137 152 159 155 157 161 169 174
336 344 334 327 347 348 356 4 5 11 16 10 11 15 35 41 45 48 48 54 54 50 55 67 79 81 75 73 76 92 103 108 115 123 132 136 135 140 135 140 156 168 181 190
323 328 327 322 329 345 358 -0 360 3 9 12 13 22 30 50 49 46 47 46 55 54 48 57 77 85 80 74 65 59 90 111 118 128 139 138 142 147 141 133 171 199 215 206
348 342 334 328 344 337 330 342 353 3 4 8 12 13 16 29 50 53 45 39 50 58 58 62 66 71 71 73 65 52 84 112 126 125 126 138 154 159 154 139 39 351 253 252